Location: Pedholt
(56.0260°N, 10.2097°E)
Time: 08:29:08
(UTC+00:00)

Transit 2A - All Passes

Search period start: 24 July 2021 00:00
Search period end: 03 August 2021 00:00
Orbit: 598 x 960 km, 66.7° (Epoch: 23 July)

Date Brightness Start Highest point End Pass type
(mag) Time Alt. Az. Time Alt. Az. Time Alt. Az.
24 Jul - 06:27:43 10° SE 06:29:35 12° ESE 06:31:30 10° E daylight
24 Jul - 08:07:21 10° SSW 08:11:44 65° SE 08:16:28 10° NE daylight
24 Jul - 09:50:58 10° W 09:55:13 37° NNW 09:59:49 10° NE daylight
24 Jul - 11:35:45 10° WNW 11:39:38 24° N 11:43:49 10° NE daylight
24 Jul - 13:19:39 10° NW 13:24:09 33° NNE 13:29:03 10° E daylight
24 Jul - 15:02:47 10° NW 15:07:57 84° NE 15:13:40 10° SE daylight
24 Jul - 16:46:23 10° WNW 16:50:45 27° WSW 16:55:27 10° S daylight
25 Jul - 07:33:22 10° SSW 07:37:37 48° ESE 07:42:12 10° NE daylight
25 Jul - 09:16:30 10° WSW 09:20:51 44° NNW 09:25:35 10° NE daylight
25 Jul - 11:01:15 10° WNW 11:05:09 25° N 11:09:22 10° NE daylight
25 Jul - 12:45:23 10° NW 12:49:43 29° NNE 12:54:26 10° E daylight
25 Jul - 14:28:35 10° NW 14:33:42 68° NE 14:39:21 10° SE daylight
25 Jul - 16:11:57 10° NW 16:16:43 35° WSW 16:21:52 10° S daylight
26 Jul - 06:59:31 10° S 07:03:33 35° ESE 07:07:51 10° NE daylight
26 Jul - 08:42:06 10° WSW 08:46:32 55° NW 08:51:21 10° NE daylight
26 Jul - 10:26:43 10° WNW 10:30:41 26° NNW 10:34:58 10° NE daylight
26 Jul - 12:11:05 10° NW 12:15:16 27° NNE 12:19:49 10° ENE daylight
26 Jul - 13:54:23 10° NW 13:59:25 55° NE 14:04:57 10° ESE daylight
26 Jul - 15:37:37 10° NW 15:42:37 45° WSW 15:48:06 10° SSE daylight
26 Jul - 17:24:15 10° W 17:24:44 10° WSW 17:25:14 10° WSW daylight
27 Jul - 06:25:53 10° S 06:29:32 26° ESE 06:33:25 10° ENE daylight
27 Jul - 08:07:47 10° SW 08:12:16 70° NW 08:17:09 10° NE daylight
27 Jul - 09:52:10 10° WNW 09:56:13 28° NNW 10:00:37 10° NE daylight
27 Jul - 11:36:44 10° NW 11:40:48 25° N 11:45:13 10° ENE daylight
27 Jul - 13:20:12 10° NW 13:25:05 46° NNE 13:30:29 10° ESE daylight
27 Jul - 15:03:21 10° NW 15:08:29 59° SW 15:14:10 10° SSE daylight
27 Jul - 16:48:01 10° WNW 16:50:50 14° WSW 16:53:47 10° SW daylight
28 Jul - 05:52:28 10° SSE 05:55:34 19° ESE 05:58:50 10° ENE daylight
28 Jul - 07:33:33 10° SW 07:38:01 90° NW 07:42:55 10° NE daylight
28 Jul - 09:17:38 10° W 09:21:47 32° NNW 09:26:18 10° NE daylight
28 Jul - 11:02:20 10° NW 11:06:20 25° N 11:10:39 10° ENE daylight
28 Jul - 12:46:00 10° NW 12:50:44 39° NNE 12:55:57 10° E daylight
28 Jul - 14:29:07 10° NW 14:34:19 75° SW 14:40:06 10° SE daylight
28 Jul - 16:13:08 10° WNW 16:16:54 19° WSW 16:20:53 10° SSW daylight
29 Jul - 05:19:27 10° SE 05:21:40 14° ESE 05:23:56 10° ENE daylight
29 Jul - 06:59:25 10° SSW 07:03:51 69° SE 07:08:40 10° NE daylight
29 Jul - 08:43:07 10° W 08:47:23 36° NNW 08:52:02 10° NE daylight
29 Jul - 10:27:53 10° NW 10:31:50 24° N 10:36:07 10° NE daylight
29 Jul - 12:11:45 10° NW 12:16:21 34° NNE 12:21:21 10° E daylight
29 Jul - 13:54:54 10° NW 14:00:07 87° NE 14:05:55 10° SE daylight
29 Jul - 15:38:32 10° WNW 15:42:54 26° WSW 15:47:34 10° SSW daylight
30 Jul - 06:25:25 10° SSW 06:29:43 51° SE 06:34:24 10° NE daylight
30 Jul - 08:08:39 10° WSW 08:13:01 43° NNW 08:17:47 10° NE daylight
30 Jul - 09:53:23 10° WNW 09:57:21 25° N 10:01:38 10° NE daylight
30 Jul - 11:37:30 10° NW 11:41:56 30° NNE 11:46:45 10° E daylight
30 Jul - 13:20:42 10° NW 13:25:53 71° NE 13:31:37 10° SE daylight
30 Jul - 15:04:06 10° NW 15:08:52 33° WSW 15:14:01 10° S daylight
31 Jul - 05:51:33 10° S 05:55:39 37° ESE 06:00:04 10° NE daylight
31 Jul - 07:34:14 10° WSW 07:38:41 53° NW 07:43:34 10° NE daylight
31 Jul - 09:18:51 10° WNW 09:22:52 26° N 09:27:13 10° NE daylight
31 Jul - 11:03:12 10° NW 11:07:29 28° NNE 11:12:08 10° ENE daylight
31 Jul - 12:46:30 10° NW 12:51:36 58° NE 12:57:14 10° ESE daylight
31 Jul - 14:29:45 10° NW 14:34:47 43° WSW 14:40:16 10° S daylight
01 Aug - 05:17:51 10° S 05:21:38 28° ESE 05:25:39 10° ENE daylight
01 Aug - 06:59:53 10° SW 07:04:24 67° NW 07:09:21 10° NE daylight
01 Aug - 08:44:19 10° WNW 08:48:25 28° NNW 08:52:51 10° NE daylight
01 Aug - 10:28:51 10° NW 10:33:01 26° N 10:37:31 10° ENE daylight
01 Aug - 12:12:18 10° NW 12:17:17 48° NE 12:22:47 10° ESE daylight
01 Aug - 13:55:28 10° NW 14:00:39 56° SW 14:06:22 10° SSE daylight
01 Aug - 15:40:18 10° WNW 15:42:58 14° WSW 15:45:44 10° SW daylight
02 Aug - 04:44:22 10° SSE 04:47:39 20° ESE 04:51:07 10° ENE daylight
02 Aug - 06:25:38 10° SW 06:30:09 86° NW 06:35:07 10° NE daylight
02 Aug - 08:09:47 10° W 08:13:58 31° NNW 08:18:32 10° NE daylight
02 Aug - 09:54:27 10° NW 09:58:32 25° N 10:02:57 10° ENE daylight
02 Aug - 11:38:05 10° NW 11:42:56 40° NNE 11:48:15 10° E daylight
02 Aug - 13:21:13 10° NW 13:26:30 72° SW 13:32:18 10° SSE daylight
02 Aug - 15:05:20 10° WNW 15:09:01 19° WSW 15:12:55 10° SSW daylight
